Torna al catalogo

STARLINK-32947

AttivoComunicazioniVLEO
NORAD 63121·PAYLOAD·🇺🇸 United States

Lanciato Feb 27, 2025 da Cape Canaveral Space Force Station

Loading…

Prossimi Passaggi (prossime 24 ore)

TLE

AggiornatoSource: CelesTrak SupGP

Epoca: Sep 15, 2026, 03:07 UTC

1 63121C 25039T   26258.13034722  .00007865  00000+0  28481-3 0  2586
2 63121  43.0038  22.4183 0001692 267.5039 144.1975 15.27581495    12

Traccia STARLINK-32947 in tempo reale con AllMySat

Download on the App Store